Hourly Data Report for October 03, 2017

All times are specified in Local Standard Time (LST). Add 1 hour to adjust for Daylight Saving Time where and when it is observed.

BERENS RIVER CS
MANITOBA

52°21'35.052" N
97°01'19.032" W
221.90 m
5030203
71158
WCF

Download Data

Hourly Data (October 2017)
Hourly Data Report for October 3, 2017
Temp Definition
°C
Dew Point Temp Definition
°C
Rel Hum Definition
%
Wind Dir Definition
10's deg

Wind Spd Definition
km/h
Visibility Definition
km
Stn Press Definition
kPa
Hmdx Definition


Wind Chill Definition


Weather Definition


TIME
00:00 9.7 5.9 77 22 11   98.33     LegendNANA
01:00 9.2 5.7 79 21 8   98.40     LegendNANA
02:00 8.6 5.4 80 22 6   98.37     LegendNANA
03:00 5.7 4.0 89 14 5   98.48     LegendNANA
04:00 3.2 2.0 92 10 2   98.51     LegendNANA
05:00 2.7 1.9 95 12 9   98.65     LegendNANA
06:00 3.0 2.3 95 11 6   98.69     LegendNANA
07:00 2.9 2.2 95 12 7   98.74     LegendNANA
08:00 6.9 4.9 87 15 6   98.79     LegendNANA
09:00 9.9 6.7 80 14 5   98.87     LegendNANA
10:00 11.2 4.4 63 6 8   98.89     LegendNANA
11:00 10.9 6.0 72 3 9   98.94     LegendNANA
12:00 10.4 6.7 78 4 9   98.98     LegendNANA
13:00 9.9 6.5 79 7 12   99.03     LegendNANA
14:00 9.4 6.7 83 6 7   99.04     LegendNANA
15:00 9.6 6.8 83 6 4   99.10     LegendNANA
16:00 9.6 7.3 85 5 8   99.13     LegendNANA
17:00 9.4 7.0 85 5 6   99.16     LegendNANA
18:00 8.8 6.4 85 4 7   99.18     LegendNANA
19:00 7.9 5.7 86 6 8   99.22     LegendNANA
20:00 7.7 5.4 86 7 8   99.22     LegendNANA
21:00 7.5 5.4 87 7 6   99.18     LegendNANA
22:00 7.3 5.5 88 7 4   99.18     LegendNANA
23:00 6.9 5.5 91 7 3   99.14     LegendNANA

Notes on Data Quality.

Legend

  • E = Estimated
  • M = Missing
  • NA = Not Available
  • ‡ = Partner data that is not subject to review by the National Climate Archives
Date modified: